Time,TemperatureF,DewpointF,PressureIn,WindDirection,WindDirectionDegrees,WindSpeedMPH,WindSpeedGustMPH,Humidity,HourlyPrecipIn,Conditions,Clouds,dailyrainin,SoftwareType,DateUTC
2013-07-22 00:00:00,72.0,66.6,29.81,WSW,239,0.0,1.0,83,0.00,,,0.00,VWS V14.01,2013-07-22 04:00:00,
2013-07-22 00:01:00,72.0,66.6,29.81,WSW,239,0.0,1.0,83,0.00,,,0.00,VWS V14.01,2013-07-22 04:01:00,
2013-07-22 00:06:00,72.1,66.7,29.82,WSW,239,0.0,0.0,83,0.00,,,0.00,VWS V14.01,2013-07-22 04:06:00,
2013-07-22 00:11:00,72.0,66.6,29.81,WSW,239,0.0,0.0,83,0.00,,,0.00,VWS V14.01,2013-07-22 04:11:00,
2013-07-22 00:16:00,72.0,66.6,29.81,WSW,239,0.0,1.0,83,0.00,,,0.00,VWS V14.01,2013-07-22 04:16:00,
2013-07-22 00:21:00,72.0,66.9,29.81,WSW,239,0.0,1.0,84,0.00,,,0.00,VWS V14.01,2013-07-22 04:21:00,
2013-07-22 00:26:00,71.9,66.8,29.81,WSW,240,0.0,1.0,84,0.00,,,0.00,VWS V14.01,2013-07-22 04:26:00,
2013-07-22 00:31:00,71.8,66.4,29.81,WSW,240,0.0,1.0,83,0.00,,,0.00,VWS V14.01,2013-07-22 04:31:00,
2013-07-22 00:36:00,71.8,66.7,29.81,WSW,240,0.0,1.0,84,0.00,,,0.00,VWS V14.01,2013-07-22 04:36:00,
2013-07-22 00:41:00,71.7,66.6,29.81,WSW,240,0.0,1.0,84,0.00,,,0.00,VWS V14.01,2013-07-22 04:41:00,
2013-07-22 00:46:00,71.6,66.5,29.80,WSW,240,0.0,1.0,84,0.00,,,0.00,VWS V14.01,2013-07-22 04:46:00,
2013-07-22 00:51:00,71.5,66.1,29.80,WSW,240,0.0,1.0,83,0.00,,,0.00,VWS V14.01,2013-07-22 04:51:00,
2013-07-22 00:56:00,71.5,66.4,29.79,WSW,240,0.0,1.0,84,0.00,,,0.00,VWS V14.01,2013-07-22 04:56:00,
2013-07-22 01:01:00,71.4,66.0,29.79,WSW,242,0.0,1.0,83,0.00,,,0.00,VWS V14.01,2013-07-22 05:01:00,
2013-07-22 01:06:00,71.4,66.0,29.79,WSW,242,0.0,0.0,83,0.00,,,0.00,VWS V14.01,2013-07-22 05:06:00,
2013-07-22 01:11:00,71.4,66.0,29.79,WSW,242,0.0,1.0,83,0.00,,,0.00,VWS V14.01,2013-07-22 05:11:00,
2013-07-22 01:16:00,71.4,65.6,29.79,WSW,243,1.0,1.0,82,0.00,,,0.00,VWS V14.01,2013-07-22 05:16:00,
2013-07-22 01:21:00,71.4,65.6,29.79,WSW,243,0.0,1.0,82,0.00,,,0.00,VWS V14.01,2013-07-22 05:21:00,
2013-07-22 01:26:00,71.3,65.5,29.79,WSW,243,0.0,1.0,82,0.00,,,0.00,VWS V14.01,2013-07-22 05:26:00,
2013-07-22 01:31:00,71.2,65.4,29.79,WSW,243,0.0,1.0,82,0.00,,,0.00,VWS V14.01,2013-07-22 05:31:00,
2013-07-22 01:36:00,71.2,65.4,29.79,WSW,243,0.0,1.0,82,0.00,,,0.00,VWS V14.01,2013-07-22 05:36:00,
2013-07-22 01:41:00,71.2,65.1,29.80,WSW,243,0.0,1.0,81,0.00,,,0.00,VWS V14.01,2013-07-22 05:41:00,
2013-07-22 01:46:00,71.2,65.4,29.79,WSW,243,0.0,1.0,82,0.00,,,0.00,VWS V14.01,2013-07-22 05:46:00,
2013-07-22 01:51:00,71.1,65.0,29.79,WSW,244,0.0,1.0,81,0.00,,,0.00,VWS V14.01,2013-07-22 05:51:00,
2013-07-22 01:56:00,71.0,64.9,29.78,WSW,243,0.0,1.0,81,0.00,,,0.00,VWS V14.01,2013-07-22 05:56:00,
2013-07-22 02:01:00,71.0,64.9,29.78,WSW,243,0.0,1.0,81,0.00,,,0.00,VWS V14.01,2013-07-22 06:01:00,
2013-07-22 02:06:00,70.9,64.8,29.78,WSW,243,0.0,0.0,81,0.00,,,0.00,VWS V14.01,2013-07-22 06:06:00,
2013-07-22 02:11:00,70.9,64.8,29.78,WSW,243,0.0,0.0,81,0.00,,,0.00,VWS V14.01,2013-07-22 06:11:00,
2013-07-22 02:16:00,70.9,65.1,29.78,WSW,243,0.0,0.0,82,0.00,,,0.00,VWS V14.01,2013-07-22 06:16:00,
2013-07-22 02:21:00,70.8,65.4,29.78,WSW,243,0.0,0.0,83,0.00,,,0.00,VWS V14.01,2013-07-22 06:21:00,
2013-07-22 02:26:00,70.6,65.5,29.78,WSW,243,0.0,0.0,84,0.00,,,0.00,VWS V14.01,2013-07-22 06:26:00,
2013-07-22 02:31:00,70.5,65.4,29.77,WSW,243,0.0,0.0,84,0.00,,,0.00,VWS V14.01,2013-07-22 06:31:00,
2013-07-22 02:36:00,70.3,65.6,29.77,WSW,243,0.0,0.0,85,0.00,,,0.00,VWS V14.01,2013-07-22 06:36:00,
2013-07-22 02:41:00,70.2,65.5,29.77,WSW,243,0.0,0.0,85,0.00,,,0.00,VWS V14.01,2013-07-22 06:41:00,
2013-07-22 02:46:00,70.0,65.3,29.77,WSW,243,0.0,0.0,85,0.00,,,0.00,VWS V14.01,2013-07-22 06:46:00,
2013-07-22 02:51:00,70.0,65.3,29.77,WSW,243,0.0,0.0,85,0.00,,,0.00,VWS V14.01,2013-07-22 06:51:00,
2013-07-22 02:56:00,69.9,65.2,29.78,WSW,243,0.0,0.0,85,0.00,,,0.00,VWS V14.01,2013-07-22 06:56:00,
2013-07-22 03:01:00,69.8,65.1,29.78,WSW,244,0.0,1.0,85,0.00,,,0.00,VWS V14.01,2013-07-22 07:01:00,
2013-07-22 03:06:00,69.9,65.2,29.78,WSW,243,0.0,0.0,85,0.00,,,0.00,VWS V14.01,2013-07-22 07:06:00,
2013-07-22 03:11:00,69.8,65.1,29.78,WSW,243,0.0,0.0,85,0.00,,,0.00,VWS V14.01,2013-07-22 07:11:00,
2013-07-22 03:16:00,69.7,65.0,29.77,WSW,244,0.0,0.0,85,0.00,,,0.00,VWS V14.01,2013-07-22 07:16:00,
2013-07-22 03:20:00,69.6,64.9,29.77,WSW,243,0.0,0.0,85,0.00,,,0.00,VWS V14.01,2013-07-22 07:20:00,
2013-07-22 03:25:00,69.6,64.9,29.77,WSW,243,0.0,0.0,85,0.00,,,0.00,VWS V14.01,2013-07-22 07:25:00,
2013-07-22 03:30:00,69.6,64.9,29.77,WSW,243,0.0,0.0,85,0.00,,,0.00,VWS V14.01,2013-07-22 07:30:00,
2013-07-22 03:35:00,69.5,64.8,29.76,WSW,243,0.0,0.0,85,0.00,,,0.00,VWS V14.01,2013-07-22 07:35:00,
2013-07-22 03:40:00,69.5,64.8,29.76,WSW,243,0.0,0.0,85,0.00,,,0.00,VWS V14.01,2013-07-22 07:40:00,
2013-07-22 03:45:00,69.4,65.0,29.76,WSW,243,0.0,0.0,86,0.00,,,0.00,VWS V14.01,2013-07-22 07:45:00,
2013-07-22 03:50:00,69.3,64.9,29.76,WSW,243,0.0,0.0,86,0.00,,,0.00,VWS V14.01,2013-07-22 07:50:00,
2013-07-22 03:55:00,69.2,64.8,29.76,WSW,243,0.0,0.0,86,0.00,,,0.00,VWS V14.01,2013-07-22 07:55:00,
2013-07-22 04:00:00,69.2,64.8,29.76,WSW,243,0.0,0.0,86,0.00,,,0.00,VWS V14.01,2013-07-22 08:00:00,
2013-07-22 04:05:00,69.2,64.8,29.76,WSW,243,0.0,0.0,86,0.00,,,0.00,VWS V14.01,2013-07-22 08:05:00,
2013-07-22 04:10:00,69.2,64.8,29.75,WSW,243,0.0,0.0,86,0.00,,,0.00,VWS V14.01,2013-07-22 08:10:00,
2013-07-22 04:15:00,69.3,64.9,29.75,WSW,243,0.0,0.0,86,0.00,,,0.00,VWS V14.01,2013-07-22 08:15:00,
2013-07-22 04:20:00,69.4,65.0,29.75,WSW,244,0.0,0.0,86,0.00,,,0.00,VWS V14.01,2013-07-22 08:20:00,
2013-07-22 04:25:00,69.4,65.0,29.75,WSW,243,0.0,0.0,86,0.00,,,0.00,VWS V14.01,2013-07-22 08:25:00,
2013-07-22 04:30:00,69.5,65.1,29.75,WSW,243,0.0,0.0,86,0.00,,,0.00,VWS V14.01,2013-07-22 08:30:00,
2013-07-22 04:35:00,69.5,65.1,29.75,WSW,243,0.0,0.0,86,0.00,,,0.00,VWS V14.01,2013-07-22 08:35:00,
2013-07-22 04:40:00,69.5,65.1,29.75,WSW,243,0.0,0.0,86,0.00,,,0.00,VWS V14.01,2013-07-22 08:40:00,
2013-07-22 04:45:00,69.5,65.1,29.75,WSW,243,0.0,0.0,86,0.00,,,0.00,VWS V14.01,2013-07-22 08:45:00,
2013-07-22 04:50:00,69.5,65.1,29.75,WSW,243,0.0,0.0,86,0.00,,,0.00,VWS V14.01,2013-07-22 08:50:00,
2013-07-22 04:55:00,69.5,65.1,29.75,WSW,243,0.0,0.0,86,0.00,,,0.00,VWS V14.01,2013-07-22 08:55:00,
2013-07-22 05:00:00,69.5,65.1,29.75,WSW,243,0.0,0.0,86,0.00,,,0.00,VWS V14.01,2013-07-22 09:00:00,
2013-07-22 05:05:00,69.5,65.1,29.75,WSW,243,0.0,0.0,86,0.00,,,0.00,VWS V14.01,2013-07-22 09:05:00,
2013-07-22 05:10:00,69.5,65.5,29.75,WSW,243,0.0,0.0,87,0.00,,,0.00,VWS V14.01,2013-07-22 09:10:00,
2013-07-22 05:15:00,69.4,65.4,29.75,WSW,243,0.0,0.0,87,0.00,,,0.00,VWS V14.01,2013-07-22 09:15:00,
2013-07-22 05:20:00,69.4,65.4,29.75,WSW,243,0.0,0.0,87,0.00,,,0.00,VWS V14.01,2013-07-22 09:20:00,
2013-07-22 05:25:00,69.4,65.4,29.75,WSW,243,0.0,0.0,87,0.00,,,0.00,VWS V14.01,2013-07-22 09:25:00,
2013-07-22 05:30:00,69.3,65.6,29.75,WSW,243,0.0,0.0,88,0.00,,,0.00,VWS V14.01,2013-07-22 09:30:00,
2013-07-22 05:35:00,69.2,65.5,29.75,WSW,243,0.0,0.0,88,0.00,,,0.00,VWS V14.01,2013-07-22 09:35:00,
2013-07-22 05:40:00,69.2,65.5,29.75,WSW,243,0.0,0.0,88,0.00,,,0.00,VWS V14.01,2013-07-22 09:40:00,
2013-07-22 05:45:00,69.1,65.7,29.75,WSW,243,0.0,0.0,89,0.00,,,0.00,VWS V14.01,2013-07-22 09:45:00,
2013-07-22 05:50:00,69.1,65.7,29.75,WSW,243,0.0,0.0,89,0.00,,,0.00,VWS V14.01,2013-07-22 09:50:00,
2013-07-22 05:55:00,69.1,65.7,29.75,WSW,243,0.0,0.0,89,0.00,,,0.00,VWS V14.01,2013-07-22 09:55:00,
2013-07-22 06:00:00,69.0,65.6,29.75,WSW,243,0.0,0.0,89,0.00,,,0.00,VWS V14.01,2013-07-22 10:00:00,
2013-07-22 06:05:00,68.9,65.5,29.75,WSW,243,0.0,0.0,89,0.00,,,0.00,VWS V14.01,2013-07-22 10:05:00,
2013-07-22 06:10:00,68.9,65.5,29.75,WSW,243,0.0,0.0,89,0.00,,,0.00,VWS V14.01,2013-07-22 10:10:00,
2013-07-22 06:15:00,68.9,65.5,29.75,WSW,243,0.0,0.0,89,0.00,,,0.00,VWS V14.01,2013-07-22 10:15:00,
2013-07-22 06:20:00,68.9,65.5,29.75,WSW,243,0.0,0.0,89,0.00,,,0.00,VWS V14.01,2013-07-22 10:20:00,
2013-07-22 06:25:00,68.9,65.5,29.75,WSW,243,0.0,0.0,89,0.00,,,0.00,VWS V14.01,2013-07-22 10:25:00,
2013-07-22 06:30:00,68.9,65.8,29.75,WSW,243,0.0,0.0,90,0.00,,,0.00,VWS V14.01,2013-07-22 10:30:00,
2013-07-22 06:35:00,68.9,65.8,29.75,WSW,243,0.0,0.0,90,0.00,,,0.00,VWS V14.01,2013-07-22 10:35:00,
2013-07-22 06:40:00,68.9,65.8,29.75,SW,214,0.0,1.0,90,0.00,,,0.00,VWS V14.01,2013-07-22 10:40:00,
2013-07-22 06:45:00,68.8,66.1,29.75,SW,214,0.0,1.0,91,0.00,,,0.00,VWS V14.01,2013-07-22 10:45:00,
2013-07-22 06:50:00,68.7,66.3,29.74,SW,214,0.0,1.0,92,0.00,,,0.00,VWS V14.01,2013-07-22 10:50:00,
2013-07-22 06:55:00,68.5,66.4,29.74,SW,214,0.0,1.0,93,0.00,,,0.00,VWS V14.01,2013-07-22 10:55:00,
2013-07-22 07:00:00,68.3,66.2,29.75,SW,214,0.0,1.0,93,0.01,,,0.01,VWS V14.01,2013-07-22 11:00:00,
2013-07-22 07:05:00,68.1,66.0,29.75,SW,214,0.0,0.0,93,0.01,,,0.01,VWS V14.01,2013-07-22 11:05:00,
2013-07-22 07:10:00,68.1,66.3,29.74,SW,214,0.0,0.0,94,0.01,,,0.01,VWS V14.01,2013-07-22 11:10:00,
2013-07-22 07:15:00,68.1,66.3,29.75,SW,214,0.0,0.0,94,0.01,,,0.01,VWS V14.01,2013-07-22 11:15:00,
2013-07-22 07:20:00,68.1,66.3,29.75,SW,214,0.0,0.0,94,0.02,,,0.02,VWS V14.01,2013-07-22 11:20:00,
2013-07-22 07:25:00,68.1,66.6,29.74,SW,214,0.0,0.0,95,0.02,,,0.02,VWS V14.01,2013-07-22 11:25:00,
2013-07-22 07:30:00,68.0,66.5,29.74,SW,214,0.0,0.0,95,0.02,,,0.02,VWS V14.01,2013-07-22 11:30:00,
2013-07-22 07:35:00,68.0,66.5,29.74,SW,214,0.0,0.0,95,0.02,,,0.02,VWS V14.01,2013-07-22 11:35:00,
2013-07-22 07:40:00,68.0,66.5,29.74,SW,214,0.0,0.0,95,0.02,,,0.02,VWS V14.01,2013-07-22 11:40:00,
2013-07-22 07:45:00,68.0,66.5,29.74,SW,214,0.0,0.0,95,0.02,,,0.02,VWS V14.01,2013-07-22 11:45:00,
2013-07-22 07:50:00,68.0,66.5,29.74,SW,214,0.0,0.0,95,0.02,,,0.02,VWS V14.01,2013-07-22 11:50:00,
2013-07-22 07:55:00,68.0,66.5,29.74,SW,214,0.0,0.0,95,0.02,,,0.02,VWS V14.01,2013-07-22 11:55:00,
2013-07-22 08:00:00,68.1,66.9,29.74,SW,214,0.0,0.0,96,0.02,,,0.02,VWS V14.01,2013-07-22 12:00:00,
2013-07-22 08:05:00,68.1,66.9,29.74,SW,214,0.0,0.0,96,0.01,,,0.02,VWS V14.01,2013-07-22 12:05:00,
2013-07-22 08:10:00,68.1,66.9,29.74,SW,214,0.0,0.0,96,0.01,,,0.02,VWS V14.01,2013-07-22 12:10:00,
2013-07-22 08:15:00,68.1,66.9,29.74,SW,214,0.0,0.0,96,0.02,,,0.03,VWS V14.01,2013-07-22 12:15:00,
2013-07-22 08:20:00,68.1,66.9,29.74,SW,214,0.0,0.0,96,0.02,,,0.03,VWS V14.01,2013-07-22 12:20:00,
2013-07-22 08:25:00,68.1,66.9,29.74,SW,214,0.0,0.0,96,0.02,,,0.03,VWS V14.01,2013-07-22 12:25:00,
2013-07-22 08:30:00,68.2,67.0,29.74,WNW,293,0.0,0.0,96,0.02,,,0.03,VWS V14.01,2013-07-22 12:30:00,
2013-07-22 08:35:00,68.2,67.0,29.74,WNW,293,0.0,0.0,96,0.02,,,0.03,VWS V14.01,2013-07-22 12:35:00,
2013-07-22 08:40:00,68.1,66.9,29.74,WNW,293,0.0,0.0,96,0.03,,,0.04,VWS V14.01,2013-07-22 12:40:00,
2013-07-22 08:45:00,68.1,66.9,29.75,WNW,292,0.0,0.0,96,0.03,,,0.04,VWS V14.01,2013-07-22 12:45:00,
2013-07-22 08:50:00,68.0,66.8,29.75,WNW,293,0.0,1.0,96,0.04,,,0.05,VWS V14.01,2013-07-22 12:50:00,
2013-07-22 08:55:00,68.0,66.8,29.75,East,84,1.0,2.0,96,0.04,,,0.05,VWS V14.01,2013-07-22 12:55:00,
2013-07-22 09:00:00,67.9,66.7,29.75,NNW,337,0.0,2.0,96,0.06,,,0.07,VWS V14.01,2013-07-22 13:00:00,
2013-07-22 09:05:00,67.7,66.5,29.75,WSW,252,1.0,1.0,96,0.05,,,0.07,VWS V14.01,2013-07-22 13:05:00,
2013-07-22 09:10:00,67.7,66.5,29.75,WSW,251,0.0,1.0,96,0.08,,,0.10,VWS V14.01,2013-07-22 13:10:00,
2013-07-22 09:15:00,67.5,66.3,29.75,WSW,250,0.0,1.0,96,0.15,,,0.17,VWS V14.01,2013-07-22 13:15:00,
2013-07-22 09:20:00,67.3,66.1,29.76,South,181,0.0,1.0,96,0.19,,,0.21,VWS V14.01,2013-07-22 13:20:00,
2013-07-22 09:25:00,67.3,66.4,29.76,South,183,0.0,1.0,97,0.24,,,0.26,VWS V14.01,2013-07-22 13:25:00,
2013-07-22 09:30:00,67.2,66.0,29.77,SE,131,1.0,2.0,96,0.45,,,0.47,VWS V14.01,2013-07-22 13:30:00,
2013-07-22 09:35:00,66.9,65.7,29.77,SE,136,0.0,2.0,96,0.64,,,0.66,VWS V14.01,2013-07-22 13:35:00,
2013-07-22 09:40:00,66.8,65.9,29.76,East,82,0.0,2.0,97,1.03,,,1.06,VWS V14.01,2013-07-22 13:40:00,
2013-07-22 09:45:00,66.6,65.7,29.76,SSW,193,0.0,4.0,97,1.15,,,1.17,VWS V14.01,2013-07-22 13:45:00,
2013-07-22 09:50:00,66.6,65.7,29.75,SE,134,0.0,4.0,97,1.30,,,1.32,VWS V14.01,2013-07-22 13:50:00,
2013-07-22 09:55:00,66.7,66.1,29.75,SE,135,0.0,4.0,98,1.32,,,1.34,VWS V14.01,2013-07-22 13:55:00,
2013-07-22 10:00:00,66.9,66.3,29.75,SE,135,0.0,4.0,98,1.34,,,1.36,VWS V14.01,2013-07-22 14:00:00,
2013-07-22 10:05:00,67.1,66.5,29.75,SE,135,0.0,0.0,98,1.29,,,1.36,VWS V14.01,2013-07-22 14:05:00,
2013-07-22 10:10:00,67.2,66.6,29.75,SE,135,0.0,0.0,98,1.30,,,1.37,VWS V14.01,2013-07-22 14:10:00,
2013-07-22 10:15:00,67.3,66.7,29.75,SE,135,0.0,0.0,98,1.31,,,1.38,VWS V14.01,2013-07-22 14:15:00,
2013-07-22 10:20:00,67.5,66.9,29.74,SE,135,0.0,0.0,98,1.32,,,1.39,VWS V14.01,2013-07-22 14:20:00,
2013-07-22 10:25:00,67.6,67.0,29.74,SE,135,0.0,0.0,98,1.33,,,1.40,VWS V14.01,2013-07-22 14:25:00,
2013-07-22 10:30:00,67.8,67.2,29.75,SE,135,0.0,0.0,98,1.34,,,1.41,VWS V14.01,2013-07-22 14:30:00,
2013-07-22 10:35:00,68.0,67.4,29.74,SE,135,0.0,0.0,98,1.35,,,1.42,VWS V14.01,2013-07-22 14:35:00,
2013-07-22 10:40:00,68.1,67.5,29.74,SE,135,0.0,0.0,98,1.35,,,1.42,VWS V14.01,2013-07-22 14:40:00,
2013-07-22 10:45:00,68.3,67.7,29.75,SE,135,0.0,0.0,98,1.35,,,1.42,VWS V14.01,2013-07-22 14:45:00,
2013-07-22 10:50:00,68.4,67.8,29.75,SE,135,0.0,0.0,98,1.36,,,1.43,VWS V14.01,2013-07-22 14:50:00,
2013-07-22 10:55:00,68.5,67.9,29.75,SE,135,0.0,0.0,98,1.36,,,1.43,VWS V14.01,2013-07-22 14:55:00,
2013-07-22 11:00:00,68.6,68.0,29.75,SE,135,0.0,1.0,98,1.37,,,1.44,VWS V14.01,2013-07-22 15:00:00,
2013-07-22 11:05:00,68.7,68.1,29.75,SW,229,0.0,0.0,98,0.09,,,1.45,VWS V14.01,2013-07-22 15:05:00,
2013-07-22 11:10:00,68.7,68.1,29.75,SW,229,0.0,0.0,98,0.10,,,1.46,VWS V14.01,2013-07-22 15:10:00,
2013-07-22 11:15:00,68.6,68.0,29.74,SW,229,0.0,0.0,98,0.12,,,1.48,VWS V14.01,2013-07-22 15:15:00,
2013-07-22 11:20:00,68.6,68.0,29.74,SW,229,0.0,0.0,98,0.12,,,1.48,VWS V14.01,2013-07-22 15:20:00,
2013-07-22 11:25:00,68.7,68.1,29.74,SW,229,0.0,0.0,98,0.13,,,1.49,VWS V14.01,2013-07-22 15:25:00,
2013-07-22 11:30:00,68.7,68.1,29.74,SW,229,0.0,0.0,98,0.14,,,1.50,VWS V14.01,2013-07-22 15:30:00,
2013-07-22 11:35:00,68.6,68.0,29.74,SW,229,0.0,0.0,98,0.15,,,1.51,VWS V14.01,2013-07-22 15:35:00,
2013-07-22 11:40:00,68.7,68.1,29.74,SW,229,0.0,0.0,98,0.15,,,1.51,VWS V14.01,2013-07-22 15:40:00,
2013-07-22 11:45:00,68.8,68.2,29.74,SW,229,0.0,0.0,98,0.16,,,1.52,VWS V14.01,2013-07-22 15:45:00,
2013-07-22 11:50:00,68.9,68.3,29.74,SW,229,0.0,0.0,98,0.17,,,1.53,VWS V14.01,2013-07-22 15:50:00,
2013-07-22 11:55:00,68.9,68.3,29.74,SW,229,0.0,0.0,98,0.18,,,1.54,VWS V14.01,2013-07-22 15:55:00,
2013-07-22 12:00:00,69.0,68.4,29.74,SW,229,0.0,0.0,98,0.19,,,1.55,VWS V14.01,2013-07-22 16:00:00,
2013-07-22 12:05:00,69.1,68.8,29.74,SW,231,0.0,0.0,99,0.12,,,1.57,VWS V14.01,2013-07-22 16:05:00,
2013-07-22 12:10:00,69.2,68.9,29.73,SW,231,0.0,0.0,99,0.13,,,1.58,VWS V14.01,2013-07-22 16:10:00,
2013-07-22 12:15:00,69.2,68.9,29.73,SW,229,0.0,1.0,99,0.13,,,1.58,VWS V14.01,2013-07-22 16:15:00,
2013-07-22 12:20:00,69.3,68.7,29.73,SW,231,0.0,1.0,98,0.14,,,1.59,VWS V14.01,2013-07-22 16:20:00,
2013-07-22 12:25:00,69.4,69.1,29.73,SW,229,0.0,1.0,99,0.14,,,1.59,VWS V14.01,2013-07-22 16:25:00,
2013-07-22 12:30:00,69.5,69.2,29.73,SW,229,0.0,1.0,99,0.14,,,1.59,VWS V14.01,2013-07-22 16:30:00,
2013-07-22 12:35:00,69.6,69.3,29.73,SW,231,0.0,1.0,99,0.14,,,1.59,VWS V14.01,2013-07-22 16:35:00,
2013-07-22 12:40:00,69.7,69.4,29.73,SW,231,0.0,1.0,99,0.14,,,1.59,VWS V14.01,2013-07-22 16:40:00,
2013-07-22 12:45:00,69.6,69.0,29.73,SW,231,0.0,1.0,98,0.14,,,1.59,VWS V14.01,2013-07-22 16:45:00,
2013-07-22 12:50:00,69.6,69.0,29.73,SW,231,0.0,1.0,98,0.14,,,1.59,VWS V14.01,2013-07-22 16:50:00,
2013-07-22 12:55:00,69.7,69.1,29.73,SW,231,0.0,1.0,98,0.14,,,1.59,VWS V14.01,2013-07-22 16:55:00,
2013-07-22 13:00:00,69.7,69.1,29.74,SW,231,0.0,1.0,98,0.14,,,1.59,VWS V14.01,2013-07-22 17:00:00,
2013-07-22 13:05:00,69.7,69.1,29.74,SW,231,0.0,0.0,98,0.03,,,1.59,VWS V14.01,2013-07-22 17:05:00,
2013-07-22 13:10:00,69.8,69.5,29.73,SW,231,0.0,0.0,99,0.03,,,1.59,VWS V14.01,2013-07-22 17:10:00,
2013-07-22 13:15:00,69.6,69.0,29.73,SSW,212,1.0,1.0,98,0.04,,,1.60,VWS V14.01,2013-07-22 17:15:00,
2013-07-22 13:20:00,69.7,69.1,29.73,SSW,212,0.0,1.0,98,0.04,,,1.60,VWS V14.01,2013-07-22 17:20:00,
2013-07-22 13:25:00,69.9,69.6,29.73,SSW,212,0.0,1.0,99,0.04,,,1.60,VWS V14.01,2013-07-22 17:25:00,
2013-07-22 13:30:00,70.0,69.7,29.73,SSW,212,0.0,1.0,99,0.05,,,1.61,VWS V14.01,2013-07-22 17:30:00,
2013-07-22 13:35:00,70.2,69.9,29.73,SSW,211,0.0,1.0,99,0.05,,,1.61,VWS V14.01,2013-07-22 17:35:00,
2013-07-22 13:40:00,70.2,69.9,29.72,West,266,0.0,1.0,99,0.05,,,1.61,VWS V14.01,2013-07-22 17:40:00,
2013-07-22 13:45:00,70.4,70.1,29.72,West,267,0.0,1.0,99,0.05,,,1.61,VWS V14.01,2013-07-22 17:45:00,
2013-07-22 13:50:00,70.4,70.1,29.72,West,260,0.0,1.0,99,0.05,,,1.61,VWS V14.01,2013-07-22 17:50:00,
2013-07-22 13:55:00,70.5,70.2,29.72,West,260,0.0,1.0,99,0.05,,,1.61,VWS V14.01,2013-07-22 17:55:00,
2013-07-22 14:00:00,70.6,70.3,29.72,West,260,0.0,1.0,99,0.05,,,1.61,VWS V14.01,2013-07-22 18:00:00,
2013-07-22 14:06:00,70.5,69.9,29.72,West,260,0.0,0.0,98,0.02,,,1.61,VWS V14.01,2013-07-22 18:06:00,
2013-07-22 14:10:00,70.5,69.9,29.72,West,260,0.0,0.0,98,0.02,,,1.61,VWS V14.01,2013-07-22 18:10:00,
2013-07-22 14:16:00,70.4,69.8,29.71,West,260,0.0,0.0,98,0.02,,,1.61,VWS V14.01,2013-07-22 18:16:00,
2013-07-22 14:21:00,70.5,69.9,29.71,West,260,0.0,0.0,98,0.02,,,1.61,VWS V14.01,2013-07-22 18:21:00,
2013-07-22 14:26:00,70.8,70.5,29.71,West,260,0.0,0.0,99,0.02,,,1.61,VWS V14.01,2013-07-22 18:26:00,
2013-07-22 14:31:00,71.1,70.8,29.71,West,260,0.0,0.0,99,0.02,,,1.61,VWS V14.01,2013-07-22 18:31:00,
2013-07-22 14:36:00,71.1,70.5,29.70,SW,233,0.0,1.0,98,0.02,,,1.61,VWS V14.01,2013-07-22 18:36:00,
2013-07-22 14:41:00,71.1,70.5,29.70,SW,233,0.0,1.0,98,0.02,,,1.61,VWS V14.01,2013-07-22 18:41:00,
2013-07-22 14:46:00,71.0,70.4,29.70,SW,233,0.0,1.0,98,0.02,,,1.61,VWS V14.01,2013-07-22 18:46:00,
2013-07-22 14:51:00,71.2,70.6,29.69,SW,233,0.0,1.0,98,0.02,,,1.61,VWS V14.01,2013-07-22 18:51:00,
2013-07-22 14:57:00,71.3,70.7,29.69,SW,233,0.0,1.0,98,0.02,,,1.61,VWS V14.01,2013-07-22 18:57:00,
2013-07-22 15:02:00,71.5,70.9,29.69,SW,233,0.0,1.0,98,0.02,,,1.61,VWS V14.01,2013-07-22 19:02:00,
2013-07-22 15:07:00,71.8,71.2,29.69,SW,233,0.0,0.0,98,0.00,,,1.61,VWS V14.01,2013-07-22 19:07:00,
2013-07-22 15:12:00,71.9,71.3,29.69,SW,233,0.0,0.0,98,0.00,,,1.61,VWS V14.01,2013-07-22 19:12:00,
2013-07-22 15:17:00,72.2,71.9,29.69,WNW,295,0.0,0.0,99,0.00,,,1.61,VWS V14.01,2013-07-22 19:17:00,
2013-07-22 15:22:00,72.2,71.6,29.69,NNW,346,0.0,1.0,98,0.00,,,1.61,VWS V14.01,2013-07-22 19:22:00,
2013-07-22 15:27:00,72.6,72.0,29.69,NNW,345,0.0,1.0,98,0.00,,,1.61,VWS V14.01,2013-07-22 19:27:00,
2013-07-22 15:32:00,72.4,71.5,29.69,NNW,345,0.0,1.0,97,0.00,,,1.61,VWS V14.01,2013-07-22 19:32:00,
2013-07-22 15:37:00,72.3,71.4,29.69,NNW,346,0.0,1.0,97,0.00,,,1.61,VWS V14.01,2013-07-22 19:37:00,
2013-07-22 15:42:00,72.3,71.4,29.69,NNW,346,0.0,1.0,97,0.00,,,1.61,VWS V14.01,2013-07-22 19:42:00,
2013-07-22 15:47:00,72.5,71.6,29.69,NNW,345,0.0,1.0,97,0.00,,,1.61,VWS V14.01,2013-07-22 19:47:00,
2013-07-22 15:52:00,72.7,71.8,29.69,NNW,346,0.0,1.0,97,0.00,,,1.61,VWS V14.01,2013-07-22 19:52:00,
2013-07-22 15:58:00,72.7,71.5,29.69,NNW,346,0.0,1.0,96,0.00,,,1.61,VWS V14.01,2013-07-22 19:58:00,
2013-07-22 16:03:00,72.7,71.2,29.69,NNW,345,0.0,0.0,95,0.00,,,1.61,VWS V14.01,2013-07-22 20:03:00,
2013-07-22 16:08:00,72.9,71.4,29.69,NNW,346,0.0,0.0,95,0.00,,,1.61,VWS V14.01,2013-07-22 20:08:00,
2013-07-22 16:13:00,72.9,71.4,29.69,NNW,345,0.0,0.0,95,0.00,,,1.61,VWS V14.01,2013-07-22 20:13:00,
2013-07-22 16:17:00,72.9,71.7,29.69,NNW,345,0.0,0.0,96,0.00,,,1.61,VWS V14.01,2013-07-22 20:17:00,
2013-07-22 16:22:00,73.1,71.9,29.68,NNW,346,0.0,0.0,96,0.00,,,1.61,VWS V14.01,2013-07-22 20:22:00,
2013-07-22 16:27:00,73.4,72.2,29.68,NNW,346,0.0,0.0,96,0.00,,,1.61,VWS V14.01,2013-07-22 20:27:00,
2013-07-22 16:32:00,73.6,72.4,29.68,NNW,345,0.0,0.0,96,0.00,,,1.61,VWS V14.01,2013-07-22 20:32:00,
2013-07-22 16:37:00,73.7,72.5,29.68,NNW,345,0.0,0.0,96,0.00,,,1.61,VWS V14.01,2013-07-22 20:37:00,
2013-07-22 16:42:00,74.0,72.8,29.67,NE,53,0.0,2.0,96,0.00,,,1.61,VWS V14.01,2013-07-22 20:42:00,
2013-07-22 16:43:00,74.1,72.6,29.67,NE,52,0.0,2.0,95,0.00,,,1.61,VWS V14.01,2013-07-22 20:43:00,
2013-07-22 16:48:00,74.6,72.8,29.68,NE,53,0.0,2.0,94,0.00,,,1.61,VWS V14.01,2013-07-22 20:48:00,
2013-07-22 16:53:00,74.6,72.8,29.67,NE,52,0.0,2.0,94,0.00,,,1.61,VWS V14.01,2013-07-22 20:53:00,
2013-07-22 16:58:00,74.4,72.2,29.68,NE,52,0.0,2.0,93,0.00,,,1.61,VWS V14.01,2013-07-22 20:58:00,
2013-07-22 17:03:00,74.4,72.6,29.67,NE,52,0.0,0.0,94,0.00,,,1.61,VWS V14.01,2013-07-22 21:03:00,
2013-07-22 17:08:00,74.4,71.9,29.67,NE,53,0.0,0.0,92,0.00,,,1.61,VWS V14.01,2013-07-22 21:08:00,
2013-07-22 17:13:00,74.4,71.9,29.67,NE,53,0.0,0.0,92,0.00,,,1.61,VWS V14.01,2013-07-22 21:13:00,
2013-07-22 17:18:00,74.4,71.9,29.67,NE,52,0.0,0.0,92,0.00,,,1.61,VWS V14.01,2013-07-22 21:18:00,
2013-07-22 17:23:00,74.2,71.4,29.67,NE,53,0.0,0.0,91,0.00,,,1.61,VWS V14.01,2013-07-22 21:23:00,
2013-07-22 17:28:00,74.0,71.2,29.67,NE,52,0.0,0.0,91,0.00,,,1.61,VWS V14.01,2013-07-22 21:28:00,
2013-07-22 17:33:00,73.7,70.9,29.67,NE,53,0.0,0.0,91,0.00,,,1.61,VWS V14.01,2013-07-22 21:33:00,
2013-07-22 17:38:00,73.4,70.6,29.67,NE,52,0.0,0.0,91,0.00,,,1.61,VWS V14.01,2013-07-22 21:38:00,
2013-07-22 17:43:00,73.3,70.5,29.66,NE,52,0.0,0.0,91,0.00,,,1.61,VWS V14.01,2013-07-22 21:43:00,
2013-07-22 17:48:00,73.3,71.2,29.66,NE,53,0.0,0.0,93,0.00,,,1.61,VWS V14.01,2013-07-22 21:48:00,
2013-07-22 17:53:00,73.3,71.2,29.66,NE,52,0.0,0.0,93,0.00,,,1.61,VWS V14.01,2013-07-22 21:53:00,
2013-07-22 17:58:00,73.5,71.7,29.67,NE,53,0.0,0.0,94,0.00,,,1.61,VWS V14.01,2013-07-22 21:58:00,
2013-07-22 18:03:00,73.7,71.6,29.66,NE,53,0.0,0.0,93,0.00,,,1.61,VWS V14.01,2013-07-22 22:03:00,
2013-07-22 18:08:00,74.1,72.3,29.66,NE,52,0.0,0.0,94,0.00,,,1.61,VWS V14.01,2013-07-22 22:08:00,
2013-07-22 18:13:00,74.4,71.9,29.67,NE,53,0.0,0.0,92,0.00,,,1.61,VWS V14.01,2013-07-22 22:13:00,
2013-07-22 18:18:00,74.8,71.7,29.66,NE,53,0.0,0.0,90,0.00,,,1.61,VWS V14.01,2013-07-22 22:18:00,
2013-07-22 18:23:00,75.2,71.4,29.66,NE,52,0.0,0.0,88,0.00,,,1.61,VWS V14.01,2013-07-22 22:23:00,
2013-07-22 18:28:00,75.4,70.6,29.66,NE,52,0.0,0.0,85,0.00,,,1.61,VWS V14.01,2013-07-22 22:28:00,
2013-07-22 18:33:00,75.9,72.4,29.66,NE,52,0.0,0.0,89,0.00,,,1.61,VWS V14.01,2013-07-22 22:33:00,
2013-07-22 18:38:00,75.7,70.9,29.66,NE,52,0.0,0.0,85,0.00,,,1.61,VWS V14.01,2013-07-22 22:38:00,
2013-07-22 18:43:00,75.5,71.7,29.65,NE,52,0.0,0.0,88,0.00,,,1.61,VWS V14.01,2013-07-22 22:43:00,
2013-07-22 18:48:00,75.2,71.4,29.66,NE,52,0.0,0.0,88,0.00,,,1.61,VWS V14.01,2013-07-22 22:48:00,
2013-07-22 18:53:00,75.1,72.0,29.66,NE,52,0.0,0.0,90,0.00,,,1.61,VWS V14.01,2013-07-22 22:53:00,
2013-07-22 18:58:00,74.6,70.8,29.65,NE,52,0.0,0.0,88,0.00,,,1.61,VWS V14.01,2013-07-22 22:58:00,
2013-07-22 19:02:00,74.2,71.4,29.65,NE,52,0.0,0.0,91,0.00,,,1.61,VWS V14.01,2013-07-22 23:02:00,
2013-07-22 19:08:00,74.5,71.7,29.65,NE,53,0.0,0.0,91,0.00,,,1.61,VWS V14.01,2013-07-22 23:08:00,
2013-07-22 19:12:00,74.6,71.5,29.65,NE,53,0.0,0.0,90,0.00,,,1.61,VWS V14.01,2013-07-22 23:12:00,
2013-07-22 19:17:00,74.4,70.6,29.65,ENE,76,0.0,1.0,88,0.01,,,1.62,VWS V14.01,2013-07-22 23:17:00,
2013-07-22 19:22:00,74.3,71.2,29.65,ENE,77,0.0,1.0,90,0.02,,,1.63,VWS V14.01,2013-07-22 23:22:00,
2013-07-22 19:27:00,74.3,71.8,29.64,ENE,77,0.0,1.0,92,0.03,,,1.64,VWS V14.01,2013-07-22 23:27:00,
2013-07-22 19:32:00,74.0,71.5,29.65,ENE,77,0.0,1.0,92,0.04,,,1.65,VWS V14.01,2013-07-22 23:32:00,
2013-07-22 19:37:00,73.4,70.9,29.65,ENE,77,0.0,1.0,92,0.04,,,1.65,VWS V14.01,2013-07-22 23:37:00,
2013-07-22 19:42:00,72.8,70.7,29.65,ENE,76,0.0,1.0,93,0.04,,,1.65,VWS V14.01,2013-07-22 23:42:00,
2013-07-22 19:43:00,72.8,70.7,29.65,ENE,77,0.0,1.0,93,0.04,,,1.65,VWS V14.01,2013-07-22 23:43:00,
2013-07-22 19:48:00,72.5,70.4,29.65,ENE,77,0.0,1.0,93,0.04,,,1.65,VWS V14.01,2013-07-22 23:48:00,
2013-07-22 19:53:00,72.2,70.1,29.65,ENE,76,0.0,1.0,93,0.04,,,1.65,VWS V14.01,2013-07-22 23:53:00,
2013-07-22 19:58:00,72.0,70.2,29.65,ENE,76,0.0,1.0,94,0.04,,,1.65,VWS V14.01,2013-07-22 23:58:00,
2013-07-22 20:03:00,71.8,70.3,29.65,ENE,76,0.0,0.0,95,0.04,,,1.65,VWS V14.01,2013-07-23 00:03:00,
2013-07-22 20:08:00,71.8,70.3,29.65,ENE,76,0.0,0.0,95,0.04,,,1.65,VWS V14.01,2013-07-23 00:08:00,
2013-07-22 20:12:00,71.4,69.6,29.65,ENE,76,0.0,0.0,94,0.04,,,1.65,VWS V14.01,2013-07-23 00:12:00,
2013-07-22 20:17:00,71.4,69.9,29.65,ENE,76,0.0,0.0,95,0.04,,,1.65,VWS V14.01,2013-07-23 00:17:00,
2013-07-22 20:22:00,71.6,70.4,29.64,ENE,76,0.0,0.0,96,0.04,,,1.65,VWS V14.01,2013-07-23 00:22:00,
2013-07-22 20:27:00,71.8,70.6,29.64,ENE,76,0.0,0.0,96,0.04,,,1.65,VWS V14.01,2013-07-23 00:27:00,
2013-07-22 20:32:00,71.8,70.6,29.64,ENE,76,0.0,0.0,96,0.04,,,1.65,VWS V14.01,2013-07-23 00:32:00,
2013-07-22 20:37:00,71.6,70.4,29.64,ENE,77,0.0,0.0,96,0.04,,,1.65,VWS V14.01,2013-07-23 00:37:00,
2013-07-22 20:43:00,71.4,70.2,29.64,ENE,76,0.0,0.0,96,0.04,,,1.65,VWS V14.01,2013-07-23 00:43:00,
2013-07-22 20:47:00,71.3,70.1,29.64,ENE,76,0.0,0.0,96,0.04,,,1.65,VWS V14.01,2013-07-23 00:47:00,
2013-07-22 20:53:00,71.3,70.1,29.64,ENE,76,0.0,0.0,96,0.04,,,1.65,VWS V14.01,2013-07-23 00:53:00,
2013-07-22 20:57:00,71.3,70.4,29.64,ENE,76,0.0,0.0,97,0.04,,,1.65,VWS V14.01,2013-07-23 00:57:00,
2013-07-22 21:02:00,71.2,70.0,29.64,ENE,76,0.0,0.0,96,0.00,,,1.65,VWS V14.01,2013-07-23 01:02:00,
2013-07-22 21:07:00,71.0,69.8,29.64,ENE,75,0.0,0.0,96,0.00,,,1.65,VWS V14.01,2013-07-23 01:07:00,
2013-07-22 21:12:00,70.7,69.5,29.64,ENE,76,0.0,0.0,96,0.00,,,1.65,VWS V14.01,2013-07-23 01:12:00,
2013-07-22 21:17:00,70.6,69.7,29.65,ENE,77,0.0,0.0,97,0.00,,,1.65,VWS V14.01,2013-07-23 01:17:00,
2013-07-22 21:22:00,70.4,69.5,29.65,ENE,76,0.0,0.0,97,0.00,,,1.65,VWS V14.01,2013-07-23 01:22:00,
2013-07-22 21:27:00,70.3,69.4,29.65,ENE,77,0.0,0.0,97,0.00,,,1.65,VWS V14.01,2013-07-23 01:27:00,
2013-07-22 21:32:00,70.1,69.2,29.65,ENE,76,0.0,0.0,97,0.00,,,1.65,VWS V14.01,2013-07-23 01:32:00,
2013-07-22 21:37:00,69.9,69.0,29.65,ENE,77,0.0,0.0,97,0.00,,,1.65,VWS V14.01,2013-07-23 01:37:00,
2013-07-22 21:42:00,69.6,68.7,29.66,ENE,75,0.0,0.0,97,0.00,,,1.65,VWS V14.01,2013-07-23 01:42:00,
2013-07-22 21:47:00,69.4,68.5,29.66,ENE,76,0.0,0.0,97,0.00,,,1.65,VWS V14.01,2013-07-23 01:47:00,
2013-07-22 21:52:00,69.3,68.4,29.66,ENE,75,0.0,0.0,97,0.00,,,1.65,VWS V14.01,2013-07-23 01:52:00,
2013-07-22 21:57:00,69.1,68.2,29.66,ENE,76,0.0,0.0,97,0.00,,,1.65,VWS V14.01,2013-07-23 01:57:00,
2013-07-22 22:02:00,68.9,68.0,29.66,ENE,75,0.0,0.0,97,0.00,,,1.65,VWS V14.01,2013-07-23 02:02:00,
2013-07-22 22:07:00,68.6,67.7,29.66,ENE,75,0.0,0.0,97,0.00,,,1.65,VWS V14.01,2013-07-23 02:07:00,
2013-07-22 22:12:00,68.4,67.5,29.67,ENE,75,0.0,0.0,97,0.00,,,1.65,VWS V14.01,2013-07-23 02:12:00,
2013-07-22 22:17:00,68.3,67.4,29.67,ENE,76,0.0,0.0,97,0.00,,,1.65,VWS V14.01,2013-07-23 02:17:00,
2013-07-22 22:18:00,68.3,67.4,29.67,ENE,77,0.0,0.0,97,0.00,,,1.65,VWS V14.01,2013-07-23 02:18:00,
2013-07-22 22:23:00,68.1,67.2,29.67,ENE,77,0.0,0.0,97,0.00,,,1.65,VWS V14.01,2013-07-23 02:23:00,
2013-07-22 22:28:00,68.1,67.2,29.67,ENE,76,0.0,0.0,97,0.00,,,1.65,VWS V14.01,2013-07-23 02:28:00,
2013-07-22 22:33:00,68.0,67.1,29.67,ENE,75,0.0,0.0,97,0.00,,,1.65,VWS V14.01,2013-07-23 02:33:00,
2013-07-22 22:38:00,67.9,67.0,29.67,ENE,76,0.0,0.0,97,0.00,,,1.65,VWS V14.01,2013-07-23 02:38:00,
2013-07-22 22:43:00,67.8,66.9,29.67,ENE,75,0.0,0.0,97,0.00,,,1.65,VWS V14.01,2013-07-23 02:43:00,
2013-07-22 22:48:00,67.7,66.8,29.67,ENE,75,0.0,0.0,97,0.00,,,1.65,VWS V14.01,2013-07-23 02:48:00,
2013-07-22 22:53:00,67.5,66.6,29.67,ENE,75,0.0,0.0,97,0.00,,,1.65,VWS V14.01,2013-07-23 02:53:00,
2013-07-22 22:58:00,67.4,66.5,29.66,ENE,75,0.0,0.0,97,0.00,,,1.65,VWS V14.01,2013-07-23 02:58:00,
2013-07-22 23:03:00,67.3,66.7,29.66,ENE,77,0.0,0.0,98,0.00,,,1.65,VWS V14.01,2013-07-23 03:03:00,
2013-07-22 23:08:00,67.2,66.6,29.66,ENE,75,0.0,0.0,98,0.00,,,1.65,VWS V14.01,2013-07-23 03:08:00,
2013-07-22 23:13:00,67.2,66.6,29.67,ENE,75,0.0,0.0,98,0.00,,,1.65,VWS V14.01,2013-07-23 03:13:00,
2013-07-22 23:18:00,67.0,66.4,29.66,ENE,75,0.0,0.0,98,0.00,,,1.65,VWS V14.01,2013-07-23 03:18:00,
2013-07-22 23:23:00,67.1,66.5,29.66,ENE,75,0.0,0.0,98,0.00,,,1.65,VWS V14.01,2013-07-23 03:23:00,
2013-07-22 23:28:00,67.3,66.7,29.66,ENE,77,0.0,0.0,98,0.00,,,1.65,VWS V14.01,2013-07-23 03:28:00,
2013-07-22 23:33:00,67.3,66.7,29.66,ENE,75,0.0,0.0,98,0.00,,,1.65,VWS V14.01,2013-07-23 03:33:00,
2013-07-22 23:38:00,67.2,66.6,29.66,ENE,75,0.0,0.0,98,0.00,,,1.65,VWS V14.01,2013-07-23 03:38:00,
2013-07-22 23:43:00,67.0,66.4,29.67,ENE,75,0.0,0.0,98,0.00,,,1.65,VWS V14.01,2013-07-23 03:43:00,
2013-07-22 23:48:00,66.8,66.2,29.66,ENE,75,0.0,0.0,98,0.00,,,1.65,VWS V14.01,2013-07-23 03:48:00,
2013-07-22 23:53:00,66.7,66.1,29.67,ENE,75,0.0,0.0,98,0.00,,,1.65,VWS V14.01,2013-07-23 03:53:00,
2013-07-22 23:58:00,66.7,66.1,29.67,ENE,75,0.0,0.0,98,0.00,,,1.65,VWS V14.01,2013-07-23 03:58:00,